Regional Weather Roundup
Issued by NWS

Home | Current Version | Previous Version | Graphics & Text | Print | Product List | Glossary On
Versions: 1 2 3 4 5 6 7 8 9 10 11 12 13 14 15 16 17 18 19 20 21 22 23 24 25 26 27 28 29 30 31 32 33 34 35 36 37 38 39 40 41 42 43 44 45 46 47 48 49 50
284
ASUS43 KIND 212209
RWRIN

WEATHER ROUNDUP FOR INDIANA
NATIONAL WEATHER SERVICE INDIANAPOLIS IN
600 PM EDT THU MAY 21 2015

NOTE: "FAIR" INDICATES FEW OR NO CLOUDS BELOW 12,000 FEET WITH NO
SIGNIFICANT WEATHER AND/OR OBSTRUCTIONS TO VISIBILITY.

* - STATION DOES NOT REPORT WEATHER SUCH AS PRECIPITATION OR FOG.

+ - STATION NOT QUALITY CONTROLLED BY THE NATIONAL WEATHER SERVICE.
    USE DATA WITH CAUTION...ESPECIALLY DEWPOINT AND RELATIVE
    HUMIDITY OBSERVATIONS.

INZ001>003-010>013-019-020-212300-
NORTHWEST INDIANA

CITY           SKY/WX    TMP DP  RH WIND       PRES   REMARKS
GARY /AIRPORT/ MOSUNNY   70  32  24 NW12G23   30.05F
KNOX *+        MOSUNNY   64  34  32 W14       30.04F
LA PORTE +     SUNNY     67  35  31 NW10G21   30.05F
MICHIGAN CITY+ SUNNY     64  32  29 W9        30.05F
MONTICELLO +   MOSUNNY   64  38  38 W6G16     30.06F
RENSSELAER +   SUNNY     66  34  30 W13       30.06F
VALPARAISO     SUNNY     66  33  29 NW10      30.05F

$$

LMZ046-743>745-212300-
SOUTHERN LAKE MICHIGAN

STATION/POSITION TIME  TEMP    WIND        PRES    WAVE
                       AIR SEA DIR/SP/G            HT
                 (UTC) (F)     (DEG/KT/KT) (MB)    (FT)
BURNS HARBOR     2200   65      60/  1/  2 1017.9S
MICHIGAN CITY    2200   59     220/  3/  4   N/A
5NW MICH CITY    2200   57 54  200/  4/  4   N/A     1

$$

INZ004-005-014>016-021>024-212300-
NORTH CENTRAL INDIANA

CITY           SKY/WX    TMP DP  RH WIND       PRES   REMARKS
ELKHART        SUNNY     64  32  29 W15G21    30.05S
GOSHEN         SUNNY     62  35  36 W16       30.04S
LOGANSPORT +   MOSUNNY   63  32  31 W14       30.07F
PERU/GRISSOM   SUNNY     63  37  37 W13G20    30.05F
ROCHESTER +    SUNNY     64  36  34 NW10G20   30.06F
SOUTH BEND     SUNNY     65  30  27 NW15      30.05F
WARSAW +       SUNNY     63  37  39 W15       30.05F

$$

INZ006>009-017-018-025>027-212300-
NORTHEAST INDIANA

CITY           SKY/WX    TMP DP  RH WIND       PRES   REMARKS
ANGOLA *+      MOSUNNY   63  54  72 W14       30.02S
AUBURN +       MOSUNNY   61  36  39 W13G20    30.04S
FORT WAYNE     MOSUNNY   62  40  44 W14       30.05F
HUNTINGTON +   MOSUNNY   61  37  41 W10G17    30.05S

$$

INZ028-029-035-036-043>045-051>053-212300-
WEST CENTRAL INDIANA

CITY           SKY/WX    TMP DP  RH WIND       PRES   REMARKS
CRAWFORDSVL +  MOSUNNY   62  29  29 W14       30.10S
GREENCASTLE +  MOSUNNY   61  32  33 NW6       30.11F
LAFAYETTE      MOSUNNY   62  37  39 W10       30.07F
TERRE HAUTE    MOSUNNY   63  43  48 W8        30.12F

$$

INZ030>032-037>040-046>048-054>057-064-065-212300-
CENTRAL INDIANA

CITY           SKY/WX    TMP DP  RH WIND       PRES   REMARKS
CP ATTERBURY + MOSUNNY   59  41  51 W5        30.12F
COLUMBUS       MOSUNNY   59  39  47 W6        30.12F
FRANKFORT +    SUNNY     66  36  33 W16G23    30.10S
GREENWOOD *+   PTSUNNY   61  32  33 W10       30.10F
INDIANAPOLIS   MOSUNNY   62  37  39 W6        30.08F
-EAGLE CREEK   PTSUNNY   63  38  39 NW13      30.08F
KOKOMO *+      SUNNY     64  37  36 NW13      30.07S
MARION +       SUNNY     62  33  33 NW15      30.08S
MT COMFORT *+  SUNNY     63  23  22 W14       30.09F
SHELBYVILLE    PTSUNNY   63  41  44 N7        30.09F
ZIONSVILLE +   MOSUNNY   62  35  36 NW9G16    30.09F

$$

INZ033-034-041-042-049-050-058-059-212300-
EAST CENTRAL INDIANA

CITY           SKY/WX    TMP DP  RH WIND       PRES   REMARKS
MUNCIE         SUNNY     61  38  42 W14       30.07F

$$

INZ060-061-067>069-081>083-085>088-212300-
SOUTHWEST INDIANA

CITY           SKY/WX    TMP DP  RH WIND       PRES   REMARKS
EVANSVILLE     MOSUNNY   60  44  55 NW12G20   30.17F
HUNTINGBURG *+ MOSUNNY   57  45  62 N14       30.16S
WASHINGTON +   PTSUNNY   59  38  46 W9        30.15S

$$

INZ062-063-066-070>080-084-089>092-212300-
SOUTH CENTRAL AND SOUTHEAST INDIANA

CITY           SKY/WX    TMP DP  RH WIND       PRES   REMARKS
BLOOMINGTON    MOSUNNY   58  42  55 NW6       30.12F
MADISON *+     PTSUNNY   57  37  47 NW9       30.13S
NORTH VERNON + PTSUNNY   59  41  51 NW9G18    30.12F
SEYMOUR +      PTSUNNY   61  41  48 NW9G17    30.12F

$$




USA.gov is the U.S. government's official web portal to all federal, state and local government web resources and services.